Regional Weather Roundup
Issued by NWS Jackson, KY

Home | Current Version | Previous Version | Graphics & Text | Print | Product List | Glossary On
Versions: 1 2 3 4 5 6 7 8 9 10 11 12 13 14 15 16 17 18 19 20 21 22 23 24 25 26 27 28 29 30 31 32 33 34 35 36 37 38 39 40 41 42 43 44 45 46 47 48 49 50
000
ASUS43 KJKL 291710
RWRJKL

EAST KENTUCKY HOURLY WEATHER ROUNDUP
NATIONAL WEATHER SERVICE JACKSON KY
100 PM EDT SAT AUG 29 2015

NOTE: "FAIR" INDICATES FEW OR NO CLOUDS BELOW 12,000 FEET WITH
NO SIGNIFICANT WEATHER AND/OR OBSTRUCTIONS TO VISIBILITY.

* THESE REPORTS ARE NOT UNDER NWS QUALITY CONTROL AND MAY NOT
  REPORT WEATHER SUCH AS PRECIPITATION AND FOG.

KYZ079-080-083-085-087-088-110-112-115-119-120-291800
...EASTERN KENTUCKY...

CITY           SKY/WX    TMP DP  RH WIND       PRES   REMARKS
JACKSON        MOSUNNY   79  65  62 VRB5      30.22F
LONDON         MOSUNNY   80  62  54 S7        30.21F
SOMERSET*      PTSUNNY   79  64  61 SW6       30.20F
MONTICELLO*    MOSUNNY   82  69  64 S12       30.21F
MIDDLESBORO*   MOSUNNY   81  64  55 SE5       30.22F
HARLAN APT*      N/A     82  61  47 MISG      30.23F
HAZARD APT*    SUNNY     84  63  48 SW7       30.22F
BLACK MTN*       N/A     72  61  68 SW2         N/A
PIKEVILLE APT* SUNNY     79  64  61 S3        30.23F
BIG SANDY*     MOSUNNY   81  66  60 SW5       30.22F
MOREHEAD APT*  SUNNY     84  66  54 SW13      30.20F
$$

KYZ035-036-041-042-044-050-067-078-099-291800
...CENTRAL KENTUCKY...

CITY           SKY/WX    TMP DP  RH WIND       PRES   REMARKS
MT STERLING*   PTSUNNY  N/A N/A N/A SW7G17    30.20S
FLEMING/MASON* MOSUNNY   84  68  58 SW10      30.18F
DANVILLE*      PTSUNNY   82  66  57 SW12      30.19S
RICHMOND*      SUNNY     82  64  54 S12       30.19F
LEXINGTON      MOSUNNY   85  66  53 S15       30.16F
FRANKFORT      CLOUDY    82  66  58 SW9       30.14F
$$

KYZ091>093-OHZ055-061-077-WVZ005-015-034-035-042-291800
...SOUTHERN OHIO/WEST VIRGINIA...

CITY           SKY/WX    TMP DP  RH WIND       PRES   REMARKS
COVINGTON      MOSUNNY   83  69  62 VRB6      30.14F
COLUMBUS       PTSUNNY   82  65  56 SW7       30.13F
DAYTON         PTSUNNY   81  66  60 SW9       30.14F
WILMINGTON     MOSUNNY   83  66  56 SW13G18   30.14F
HUNTINGTON     MOSUNNY   82  65  56 CALM      30.18F
CHARLESTON     MOSUNNY   84  63  49 W3        30.19F
PINEVILLE*     PTSUNNY   81  66  59 MISG      30.30F
BECKLEY        MOSUNNY   78  60  53 W7        30.28F
BLUEFIELD      MOSUNNY   80  59  48 NW6       30.30F
$$

VAZ002-007-008-TNZ017-027-036-066-071-291800
...SOUTHWEST VIRGINIA/EAST TENNESSEE...

CITY           SKY/WX    TMP DP  RH WIND       PRES   REMARKS
WISE*          PTSUNNY   79  57  47 SW5       30.30F
JONESVILLE*    MOSUNNY   82  32  16 E3        30.25F
ABINGDON*      CLOUDY    78  55  44 CALM      30.28S
BRISTOL        PTSUNNY   79  61  53 CALM      30.24F
KNOXVILLE      PTSUNNY   83  69  62 W5        30.20F
OAK RIDGE      MOSUNNY   84  64  50 S6        30.22F
CROSSVILLE     MOSUNNY   80  66  62 S9        30.24F
NASHVILLE      PTSUNNY   85  68  56 S7        30.14F
$$

...KEY TO REMARKS...
VSB - VISIBILITY IN MILES
WCI - WIND CHILL INDEX
HX  - HEAT INDEX

$$



USA.gov is the U.S. government's official web portal to all federal, state and local government web resources and services.